Vorticity
nan nan nan nan nan nan nan nan nan nan nan nan nan nan nan nan nan nan nan nan nan nan nan nan nan nan nan nan nan nan nan nan nan nan nan nan nan nan nan nan nan nan nan nan nan nan nan nan nan nan nan nan nan nan nan nan nan nan nan nan nan nan nan nan nan nan nan nan nan
nan 9 9 8 7 7 8 10 10 10 8 8 10 10 10 9 9 8 9 8 8 8 9 9 9 8 8 8 10 11 10 10 10 10 11 11 10 9 8 9 9 9 8 9 8 7 9 10 8 6 6 9 11 10 10 9 11 11 11 6 6 10 14 16 15 15 14 12 nan
nan 10 10 10 8 7 7 9 10 10 9 8 9 10 10 9 10 10 9 9 9 8 7 8 9 9 10 10 10 11 10 11 10 10 10 11 11 10 9 9 10 9 9 10 8 6 7 8 8 8 7 7 9 9 10 12 11 12 14 11 7 8 10 14 16 16 15 16 nan
nan 11 11 11 10 6 5 7 9 9 9 10 11 11 11 9 9 10 10 9 9 9 8 7 8 9 11 12 10 9 10 11 9 9 9 10 11 11 10 9 10 10 10 10 9 8 7 6 7 9 10 9 11 10 9 11 11 10 13 14 11 11 9 10 13 13 13 14 nan
nan 12 11 12 12 8 6 8 9 8 8 9 10 10 10 10 10 9 9 9 10 9 9 7 6 7 8 10 10 9 10 11 11 10 10 10 11 12 12 11 10 10 11 11 11 10 10 7 6 9 11 11 10 10 10 9 8 6 6 10 11 12 11 9 10 11 11 10 nan
nan 11 11 11 11 9 8 10 11 8 7 9 8 6 6 7 9 9 8 7 9 9 10 9 8 7 8 9 10 10 11 11 12 12 11 11 11 12 12 12 11 10 10 11 12 12 12 10 7 8 10 11 11 11 10 10 8 7 4 4 8 9 12 9 9 10 10 8 nan
nan 9 10 11 11 8 7 7 10 10 9 9 9 7 4 4 6 7 6 6 7 9 11 12 11 9 9 9 9 10 10 9 11 11 11 11 11 11 11 12 12 11 10 10 12 12 13 11 8 9 10 10 11 14 13 10 8 7 5 3 4 8 12 11 8 11 12 11 nan
nan 10 10 11 11 10 8 6 8 9 9 9 9 9 7 6 6 6 6 7 8 9 9 10 11 9 8 7 8 8 8 8 9 10 10 10 10 10 11 12 12 12 12 12 12 11 11 10 9 10 10 10 10 13 14 12 8 7 6 3 2 4 7 10 9 10 13 14 nan
nan 11 12 13 13 12 11 10 9 9 8 7 8 8 8 8 8 7 7 8 9 9 8 8 10 10 9 8 8 8 9 9 9 9 9 10 10 10 10 11 12 12 12 13 14 13 11 9 8 8 8 7 7 8 12 13 10 8 7 8 5 4 3 5 7 8 10 13 nan
nan 10 11 13 13 14 14 14 12 10 8 7 7 8 8 8 9 9 8 8 9 8 8 8 10 10 10 9 9 9 9 9 10 10 10 9 10 9 9 9 10 10 11 11 14 15 13 11 9 7 6 6 7 7 9 10 11 9 5 7 9 7 5 4 6 8 9 10 nan
nan 9 9 9 11 13 13 13 14 12 10 8 7 8 9 10 10 9 8 8 8 8 8 8 9 9 9 10 10 10 9 9 9 10 10 9 9 9 9 9 9 9 9 9 11 13 13 11 10 8 6 5 9 11 11 10 11 9 5 4 8 9 8 6 6 7 10 11 nan
nan 10 10 9 10 11 11 10 11 11 11 9 8 9 10 10 10 9 8 7 7 7 8 10 10 10 9 8 10 10 10 9 9 8 9 9 9 9 9 9 9 10 10 9 10 10 10 9 9 9 9 6 8 11 13 12 11 10 8 5 7 8 9 8 6 5 8 10 nan
nan 10 10 11 11 11 10 9 8 9 10 9 9 9 9 10 10 10 10 8 6 6 8 10 12 10 9 7 8 8 9 9 9 8 7 7 8 8 8 9 9 10 11 11 10 8 8 9 10 10 10 8 5 7 10 12 11 11 10 9 8 7 8 8 7 5 6 7 nan
nan 9 10 13 13 12 10 9 8 9 9 9 9 9 9 11 11 11 10 9 6 6 7 9 10 10 9 8 8 8 8 8 8 8 7 6 7 8 8 8 9 10 10 11 10 10 8 8 9 10 10 9 6 6 8 10 10 11 11 11 10 9 8 9 8 8 8 7 nan
nan 9 12 14 13 12 11 9 10 10 10 10 10 10 9 11 12 11 10 8 7 7 7 6 7 9 10 10 9 9 8 8 8 8 7 7 8 8 8 8 9 9 9 8 9 10 10 10 10 11 11 11 10 9 9 10 10 10 10 11 11 10 10 9 10 10 10 9 nan
nan 10 12 12 11 11 11 10 10 10 9 9 9 9 8 9 11 10 9 7 7 7 6 4 6 8 10 10 11 11 10 9 9 8 8 8 9 9 9 9 9 9 9 8 8 8 10 10 11 12 12 11 11 11 11 11 11 10 10 10 10 11 11 11 11 11 11 11 nan
nan 9 11 9 8 9 10 10 8 7 7 7 7 8 9 9 8 8 7 7 5 4 4 5 7 7 8 9 10 11 11 9 9 8 8 9 9 9 9 9 9 9 10 9 8 8 8 9 10 11 12 12 12 12 12 12 12 12 11 11 11 11 12 12 11 12 12 12 nan
nan 9 9 8 9 11 11 10 7 6 6 7 8 9 8 7 6 5 6 6 5 5 5 7 8 8 7 8 8 9 10 9 8 8 8 9 9 9 9 9 9 10 10 10 9 9 9 9 9 10 11 12 12 12 13 13 12 12 12 12 12 12 12 13 12 11 11 12 nan
nan 8 8 9 11 12 12 11 9 8 8 9 9 8 7 6 6 5 5 5 6 7 8 9 9 9 9 8 7 7 8 11 9 9 8 9 9 9 9 9 9 10 10 10 10 10 10 10 10 10 10 10 10 11 11 12 11 12 13 14 13 13 13 13 12 11 10 11 nan
nan 8 9 10 12 12 12 12 11 10 9 8 7 7 6 7 7 6 5 6 8 10 10 10 9 8 8 9 8 7 7 10 11 10 10 10 10 10 10 10 10 11 11 11 11 11 11 11 11 11 10 10 10 10 11 11 11 12 12 14 14 14 13 13 12 11 11 11 nan
nan 11 12 11 12 11 11 12 10 9 8 7 7 7 8 8 8 8 8 9 11 11 11 10 9 9 9 9 9 9 8 9 10 11 11 11 11 11 11 11 11 10 10 10 10 11 10 10 11 11 11 12 11 11 11 11 12 12 11 11 12 13 13 13 12 12 12 12 nan
nan 12 11 11 11 10 10 9 9 8 7 7 8 8 9 9 9 10 11 13 12 11 10 11 11 11 10 10 10 10 9 8 9 9 9 10 10 10 10 10 10 9 9 10 11 11 12 12 12 12 12 12 13 12 11 10 11 12 12 10 10 11 12 12 12 12 12 12 nan
nan 10 10 11 11 10 10 10 9 8 8 8 9 9 10 10 10 10 11 11 10 10 11 12 12 12 12 11 11 10 8 7 8 8 8 8 8 9 9 10 11 11 11 12 12 11 11 14 16 16 15 14 14 14 13 12 11 12 12 12 11 11 11 11 11 11 12 11 nan
nan 9 9 10 10 10 10 9 8 8 8 9 9 10 10 9 10 11 11 9 9 9 10 10 10 11 11 12 12 11 10 8 8 8 9 8 8 9 10 11 13 14 14 13 7 1 -2 1 9 14 17 16 15 15 15 14 12 11 11 12 11 12 12 12 11 11 11 11 nan
nan 9 8 8 8 8 9 8 7 8 9 9 10 10 9 10 10 10 10 9 9 10 9 8 9 10 10 11 12 12 12 12 11 10 10 10 10 10 10 11 13 14 14 10 2 -4 -8 -11 -8 -1 8 14 15 14 15 15 13 11 11 11 10 10 11 12 12 12 12 12 nan
nan 9 9 9 8 8 8 8 9 9 9 10 9 9 10 10 11 10 9 9 9 10 10 11 11 10 10 11 11 11 11 12 12 12 10 10 10 9 9 9 10 12 11 4 2 1 -0 -3 -8 -8 -3 7 11 12 13 15 16 14 12 10 10 10 9 11 12 12 12 13 nan
nan 9 9 9 8 8 9 10 10 10 10 9 9 10 10 10 9 9 8 9 9 11 12 13 12 13 15 15 12 11 10 10 11 12 12 11 9 9 8 8 9 8 5 -0 -0 2 5 6 5 1 -1 -0 7 10 11 13 16 17 16 14 13 12 11 10 11 12 11 12 nan
nan 8 8 9 9 9 10 10 9 9 9 10 10 10 10 9 8 8 8 8 9 11 13 14 15 17 16 12 11 11 10 9 10 12 12 11 10 9 8 7 7 3 -1 -4 -1 3 6 8 9 7 4 -2 6 10 12 13 15 17 17 17 17 16 14 12 12 13 13 12 nan
nan 9 9 9 9 9 9 9 9 9 10 11 11 10 10 9 9 9 8 8 10 11 12 13 13 10 7 4 7 10 11 11 11 11 11 10 10 9 8 6 6 5 2 1 4 6 8 9 10 10 7 3 4 7 11 13 12 13 14 16 17 17 16 13 11 11 12 13 nan
nan 9 9 9 8 9 9 9 9 10 11 11 11 10 10 10 9 9 10 13 13 12 11 10 5 3 2 4 7 9 11 12 12 11 10 10 9 8 8 8 8 8 8 8 8 8 9 10 10 10 9 8 7 8 10 10 9 9 10 12 14 15 15 14 12 10 9 9 nan
nan 9 9 8 8 9 9 9 10 11 11 10 9 10 10 10 11 13 14 16 14 11 10 9 6 6 7 9 11 11 10 11 11 10 10 10 9 9 9 10 9 9 8 8 8 9 9 10 10 10 10 11 12 11 9 8 8 9 8 8 10 12 13 15 15 14 11 8 nan
nan 9 9 8 9 9 10 10 11 11 10 10 10 11 11 12 13 13 13 12 11 11 12 10 10 10 12 13 13 12 11 12 11 10 9 9 9 9 9 11 13 11 9 8 8 9 10 10 11 11 10 11 12 11 9 7 10 11 12 11 12 12 11 11 14 16 15 11 nan
nan 10 9 9 9 9 10 11 11 11 10 11 11 11 12 13 12 11 11 11 11 12 13 12 13 15 16 16 14 13 12 12 11 10 8 8 8 7 8 12 16 12 8 7 8 9 9 10 10 10 10 12 16 15 11 9 11 13 13 14 15 15 14 11 11 15 16 14 nan
nan 10 9 9 9 10 10 10 10 10 9 10 11 12 12 12 10 10 12 11 11 12 13 13 14 16 16 14 13 12 11 10 10 10 9 9 8 8 9 12 11 7 4 5 7 8 9 9 10 10 10 17 21 19 15 13 13 12 11 11 12 13 14 14 14 15 16 14 nan
nan 9 8 8 9 9 9 9 9 9 9 9 10 11 11 10 11 12 11 9 9 10 11 11 12 13 12 10 11 10 9 8 8 8 9 9 9 10 11 10 6 4 4 6 7 8 9 10 10 10 13 22 25 21 17 17 16 14 12 11 11 11 12 13 14 15 16 16 nan
nan 8 8 8 8 8 8 9 9 9 9 9 10 10 10 10 12 12 10 10 10 11 10 11 11 10 9 10 9 9 9 9 8 9 10 10 11 11 11 11 9 9 10 10 10 10 10 11 10 12 16 24 23 18 16 18 18 17 15 14 13 13 13 14 14 15 15 16 nan
nan 8 8 8 8 8 9 9 9 9 9 10 10 10 10 11 11 11 10 11 12 12 11 11 9 7 7 7 7 7 8 9 9 10 10 11 12 12 11 11 11 13 14 13 11 11 11 11 10 12 17 22 18 15 14 15 15 15 16 17 16 16 16 17 17 17 16 16 nan
nan 8 9 9 9 9 9 9 9 9 9 10 11 11 11 12 13 12 11 11 14 13 12 10 8 7 7 6 8 9 10 11 11 11 11 12 12 10 9 10 11 13 13 12 11 11 11 10 8 9 14 17 16 14 14 14 13 12 13 15 16 16 16 15 17 18 18 17 nan
nan 9 9 9 9 9 9 9 9 10 11 11 11 10 11 13 12 11 11 13 14 11 9 6 6 7 8 8 10 11 13 13 13 12 12 11 9 7 6 9 11 11 10 9 9 10 10 8 6 7 13 18 18 16 15 14 12 11 11 12 14 15 16 14 14 15 18 21 nan
nan 10 10 9 9 9 9 9 10 11 12 11 10 11 12 12 11 11 12 13 10 8 6 7 7 8 8 9 11 12 12 12 12 12 11 9 7 6 8 11 11 11 10 11 10 10 9 7 6 8 16 20 17 15 14 13 12 11 11 11 12 14 15 15 14 14 16 20 nan
nan nan nan nan nan nan nan nan nan nan nan nan nan nan nan nan nan nan nan nan nan nan nan nan nan nan nan nan nan nan nan nan nan nan nan nan nan nan nan nan nan nan nan nan nan nan nan nan nan nan nan nan nan nan nan nan nan nan nan nan nan nan nan nan nan nan nan nan nan
CAPE
nan nan nan nan nan nan nan nan nan nan nan nan nan nan nan nan nan nan nan nan nan nan nan nan nan nan nan nan nan nan nan nan nan nan nan nan nan nan nan nan nan nan nan nan nan nan nan nan nan nan nan nan nan nan nan nan nan nan nan nan nan nan nan nan nan nan nan nan nan
nan nan nan nan nan nan nan nan nan nan nan nan nan nan nan nan nan nan nan nan nan nan nan nan nan nan nan nan nan nan nan nan nan nan nan nan nan nan nan nan nan nan nan nan nan nan nan nan nan nan nan nan nan nan nan nan nan nan nan nan nan nan nan nan nan nan nan nan nan
nan nan nan nan nan nan nan nan nan nan nan nan nan nan nan nan nan nan nan nan nan nan nan nan nan nan nan nan nan nan nan nan nan nan nan nan nan nan nan nan nan nan nan nan nan nan nan nan nan nan nan nan nan nan nan nan nan nan nan nan nan nan nan nan nan nan nan nan nan
nan nan nan nan nan nan nan nan nan nan nan nan nan nan nan nan nan nan nan nan nan nan nan nan nan nan nan nan nan nan nan nan nan nan nan nan nan nan nan nan nan nan nan nan nan nan nan nan nan nan nan nan nan nan nan nan nan nan nan nan nan nan nan nan nan nan nan nan nan
nan nan nan nan nan nan nan nan nan nan nan nan nan nan nan nan nan nan nan nan nan nan nan nan nan nan nan nan nan nan nan nan nan nan nan nan nan nan nan nan nan nan nan nan nan nan nan nan nan nan nan nan nan nan nan nan nan nan nan nan nan nan nan nan nan nan nan nan nan
nan nan nan nan nan nan nan nan nan nan nan nan nan nan nan nan nan nan nan nan nan nan nan nan nan nan nan nan nan nan nan nan nan nan nan nan nan nan nan nan nan nan nan nan nan nan nan nan nan nan nan nan nan nan nan nan nan nan nan nan nan nan nan nan nan nan nan nan nan
nan nan nan nan nan nan nan nan nan nan nan nan nan nan nan nan nan nan nan nan nan nan nan nan nan nan nan nan nan nan nan nan nan nan nan nan nan nan nan nan nan nan nan nan nan nan nan nan nan nan nan nan nan nan nan nan nan nan nan nan nan nan nan nan nan nan nan nan nan
nan nan nan nan nan nan nan nan nan nan nan nan nan nan nan nan nan nan nan nan nan nan nan nan nan nan nan nan nan nan nan nan nan nan nan nan nan nan nan nan nan nan nan nan nan nan nan nan nan nan nan nan nan nan nan nan nan nan nan nan nan nan nan nan nan nan nan nan nan
nan nan nan nan nan nan nan nan nan nan nan nan nan nan nan nan nan nan nan nan nan nan nan nan nan nan nan nan nan nan nan nan nan nan nan nan nan nan nan nan nan nan nan nan nan nan nan nan nan nan nan nan nan nan nan nan nan nan nan nan nan nan nan nan nan nan nan nan nan
nan nan nan nan nan nan nan nan nan nan nan nan nan nan nan nan nan nan nan nan nan nan nan nan nan nan nan nan nan nan nan nan nan nan nan nan nan nan nan nan nan nan nan nan nan nan nan nan nan nan nan nan nan nan nan nan nan nan nan nan nan nan nan nan nan nan nan nan nan
nan nan nan nan nan nan nan nan nan nan nan nan nan nan nan nan nan nan nan nan nan nan nan nan nan nan nan nan nan nan nan nan nan nan nan nan nan nan nan nan nan nan nan nan nan nan nan nan nan nan nan nan nan nan nan nan nan nan nan nan nan nan nan nan nan nan nan nan nan
nan nan nan nan nan nan nan nan nan nan nan nan nan nan nan nan nan nan nan nan nan nan nan nan nan nan nan nan nan nan nan nan nan nan nan nan nan nan nan nan nan nan nan nan nan nan nan nan nan nan nan nan nan nan nan nan nan nan nan nan nan nan nan nan nan nan nan nan nan
nan nan nan nan nan nan nan nan nan nan nan nan nan nan nan nan nan nan nan nan nan nan nan nan nan nan nan nan nan nan nan nan nan nan nan nan nan nan nan nan nan nan nan nan nan nan nan nan nan nan nan nan nan nan nan nan nan nan nan nan nan nan nan nan nan nan nan nan nan
nan nan nan nan nan nan nan nan nan nan nan nan nan nan nan nan nan nan nan nan nan nan nan nan nan nan nan nan nan nan nan nan nan nan nan nan nan nan nan nan nan nan nan nan nan nan nan nan nan nan nan nan nan nan nan nan nan nan nan nan nan nan nan nan nan nan nan nan nan
nan nan nan nan nan nan nan nan nan nan nan nan nan nan nan nan nan nan nan nan nan nan nan nan nan nan nan nan nan nan nan nan nan nan nan nan nan nan nan nan nan nan nan nan nan nan nan nan nan nan nan nan nan nan nan nan nan nan nan nan nan nan nan nan nan nan nan nan nan
nan nan nan nan nan nan nan nan nan nan nan nan nan nan nan nan nan nan nan nan nan nan nan nan nan nan nan nan nan nan nan nan nan nan nan nan nan nan nan nan nan nan nan nan nan nan nan nan nan nan nan nan nan nan nan nan nan nan nan nan nan nan nan nan nan nan nan nan nan
nan nan nan nan nan nan nan nan nan nan nan nan nan nan nan nan nan nan nan nan nan nan nan nan nan nan nan nan nan nan nan nan nan nan nan nan nan nan nan nan nan nan nan nan nan nan nan nan nan nan nan nan nan nan nan nan nan nan nan nan nan nan nan nan nan nan nan nan nan
nan nan nan nan nan nan nan nan nan nan nan nan nan nan nan nan nan nan nan nan nan nan nan nan nan nan nan nan nan nan nan nan nan nan nan nan nan nan nan nan nan nan nan nan nan nan nan nan nan nan nan nan nan nan nan nan nan nan nan nan nan nan nan nan nan nan nan nan nan
nan nan nan nan nan nan nan nan nan nan nan nan nan nan nan nan nan nan nan nan nan nan nan nan nan nan nan nan nan nan nan nan nan nan nan nan nan nan nan nan nan nan nan nan nan nan nan nan nan nan nan nan nan nan nan nan nan nan nan nan nan nan nan nan nan nan nan nan nan
nan nan nan nan nan nan nan nan nan nan nan nan nan nan nan nan nan nan nan nan nan nan nan nan nan nan nan nan nan nan nan nan nan nan nan nan nan nan nan nan nan nan nan nan nan nan nan nan nan nan nan nan nan nan nan nan nan nan nan nan nan nan nan nan nan nan nan nan nan
nan nan nan nan nan nan nan nan nan nan nan nan nan nan nan nan nan nan nan nan nan nan nan nan nan nan nan nan nan nan nan nan nan nan nan nan nan nan nan nan nan nan nan nan nan nan nan nan nan nan nan nan nan nan nan nan nan nan nan nan nan nan nan nan nan nan nan nan nan
nan nan nan nan nan nan nan nan nan nan nan nan nan nan nan nan nan nan nan nan nan nan nan nan nan nan nan nan nan nan nan nan nan nan nan nan nan nan nan nan nan nan nan nan nan nan nan nan nan nan nan nan nan nan nan nan nan nan nan nan nan nan nan nan nan nan nan nan nan
nan nan nan nan nan nan nan nan nan nan nan nan nan nan nan nan nan nan nan nan nan nan nan nan nan nan nan nan nan nan nan nan nan nan nan nan nan nan nan nan nan nan nan nan nan nan nan nan nan nan nan nan nan nan nan nan nan nan nan nan nan nan nan nan nan nan nan nan nan
nan nan nan nan nan nan nan nan nan nan nan nan nan nan nan nan nan nan nan nan nan nan nan nan nan nan nan nan nan nan nan nan nan nan nan nan nan nan nan nan nan nan nan nan nan nan nan nan nan nan nan nan nan nan nan nan nan nan nan nan nan nan nan nan nan nan nan nan nan
nan nan nan nan nan nan nan nan nan nan nan nan nan nan nan nan nan nan nan nan nan nan nan nan nan nan nan nan nan nan nan nan nan nan nan nan nan nan nan nan nan nan nan nan nan nan nan nan nan nan nan nan nan nan nan nan nan nan nan nan nan nan nan nan nan nan nan nan nan
nan nan nan nan nan nan nan nan nan nan nan nan nan nan nan nan nan nan nan nan nan nan nan nan nan nan nan nan nan nan nan nan nan nan nan nan nan nan nan nan nan nan nan nan nan nan 0 3 8 8 nan nan nan nan nan nan nan nan nan nan nan nan nan nan nan nan nan nan nan
nan nan nan nan nan nan nan nan nan nan nan nan nan nan nan nan nan nan nan nan nan nan nan nan nan nan nan nan nan nan nan nan nan nan nan nan nan nan nan nan nan nan nan nan nan nan 1 6 21 21 15 nan nan nan nan nan nan nan nan nan nan nan nan nan nan nan nan nan nan
nan nan nan nan nan nan nan nan nan nan nan nan nan nan nan nan nan nan nan nan nan nan nan nan nan nan nan nan nan nan nan nan nan nan nan nan nan nan nan nan nan nan nan nan 0 0 4 19 34 34 44 13 nan nan nan nan nan nan nan nan nan nan nan nan nan nan nan nan nan
nan nan nan nan nan nan nan nan nan nan nan nan nan nan nan nan nan nan nan nan nan nan nan nan nan nan nan nan nan nan nan nan nan nan nan nan nan nan nan nan nan nan nan nan 1 1 12 28 43 43 53 46 1 nan nan nan nan nan nan nan nan nan nan nan nan nan nan nan nan
nan nan nan nan nan nan nan nan nan nan nan nan nan nan nan nan nan nan nan nan nan nan nan nan nan nan nan nan nan nan nan nan nan nan nan nan nan nan nan nan nan nan nan nan 5 5 19 33 48 48 62 64 19 nan nan nan nan nan nan nan nan nan nan nan nan nan nan nan nan
nan nan nan nan nan nan nan nan nan nan nan nan nan nan nan nan nan nan nan nan nan nan nan nan nan nan nan nan nan nan nan nan nan nan nan nan nan nan nan nan nan nan nan nan 8 8 24 44 54 54 68 76 39 1 1 nan nan 1 1 1 nan nan nan nan nan nan nan nan nan
nan nan nan nan nan nan nan nan nan nan nan nan nan nan nan nan nan nan nan nan nan nan nan nan nan nan nan nan nan nan nan nan nan nan nan nan nan nan nan nan nan nan nan 0 15 15 37 52 66 66 77 86 53 nan nan nan 0 1 1 1 1 nan nan nan nan nan nan nan nan
nan nan nan nan nan nan nan nan nan nan nan nan nan nan nan nan nan nan nan nan nan nan nan nan nan nan nan nan nan nan nan nan nan nan nan nan nan nan nan nan nan nan nan 4 26 26 46 60 74 74 84 91 50 3 3 2 1 3 3 2 1 0 0 nan nan nan nan nan nan
nan nan nan nan nan nan nan nan nan nan nan nan nan nan nan nan nan nan nan nan nan nan nan nan nan nan nan nan nan nan nan nan nan nan nan nan nan nan nan nan nan nan nan 13 37 37 58 69 82 82 87 92 38 6 6 3 1 2 2 3 3 2 2 0 nan nan nan nan nan
nan nan nan nan nan nan nan nan nan nan nan nan nan nan nan nan nan nan nan nan nan nan nan nan nan nan nan nan nan nan nan nan nan nan nan nan nan nan nan nan nan nan nan 19 44 44 60 73 81 81 86 80 19 2 2 1 1 1 1 2 1 nan nan nan nan nan nan nan nan
nan nan nan nan nan nan nan nan nan nan nan nan nan nan nan nan nan nan nan nan nan nan nan nan nan nan nan nan nan nan nan nan nan nan nan nan nan nan nan nan nan nan nan 19 42 42 61 76 81 81 87 52 4 1 1 0 0 0 0 nan nan nan nan nan nan nan nan nan nan
nan nan nan nan nan nan nan nan nan nan nan nan nan nan nan nan nan nan nan nan nan nan nan nan nan nan nan nan nan nan nan nan nan nan nan nan nan nan nan nan nan nan nan 11 39 39 58 73 82 82 77 31 1 0 0 0 0 nan nan nan nan nan nan nan nan nan nan nan nan
nan nan nan nan nan nan nan nan nan nan nan nan nan nan nan nan nan nan nan nan nan nan nan nan nan nan nan nan nan nan nan nan nan nan nan nan nan nan nan nan nan nan nan 1 38 38 55 72 82 82 69 16 3 2 2 nan nan nan nan nan nan nan nan nan nan nan nan nan nan
nan nan nan nan nan nan nan nan nan nan nan nan nan nan nan nan nan nan nan nan nan nan nan nan nan nan nan nan nan nan nan nan nan nan nan nan nan nan nan nan nan nan nan 0 36 36 55 71 84 84 75 26 6 2 2 nan nan nan nan nan nan nan nan nan nan nan nan nan 4
nan nan nan nan nan nan nan nan nan nan nan nan nan nan nan nan nan nan nan nan nan nan nan nan nan nan nan nan nan nan nan nan nan nan nan nan nan nan nan nan nan nan nan 6 37 37 53 68 76 76 78 34 5 nan nan nan nan nan nan nan nan nan nan nan nan nan nan nan 26
nan nan nan nan nan nan nan nan nan nan nan nan nan nan nan nan nan nan nan nan nan nan nan nan nan nan nan nan nan nan nan nan nan nan nan nan nan nan nan nan nan nan nan nan 27 27 48 65 75 75 77 21 0 nan nan nan nan nan nan nan nan nan nan nan nan nan nan nan nan